Wind_Speed
2 3 6 8 6 3 1 2 3 2 2 2 6 9 10 13 21 24 23 22 26 26 22 24 26 28 30 30 28 25 23 24 24 23 21 19 18 17 17 16 15 15 15 14
4 4 3 3 3 4 3 3 4 0 1 1 4 11 13 7 13 27 31 25 27 25 21 26 31 30 31 30 29 26 24 25 25 22 19 17 17 17 16 17 17 16 15 15
6 2 1 3 2 3 1 4 3 4 2 1 5 8 5 2 1 8 20 28 23 28 24 26 32 32 31 30 29 26 24 24 24 22 20 20 19 19 20 20 19 18 17 16
2 1 3 2 2 3 3 3 2 3 4 3 3 5 6 4 5 6 2 12 17 25 23 24 30 32 30 28 25 24 23 23 24 24 23 24 23 23 21 19 20 19 18 17
4 1 2 2 2 1 3 2 3 4 5 4 1 4 8 4 4 3 5 3 12 19 22 22 24 26 26 23 23 22 22 23 25 25 24 23 22 20 18 19 20 20 20 19
2 2 3 2 2 2 4 5 7 5 3 2 5 4 5 3 4 6 4 5 7 14 19 18 19 22 22 22 22 22 23 23 25 25 24 24 22 21 21 21 22 21 21 21
2 2 2 3 2 4 5 5 2 4 3 5 2 3 6 3 4 2 5 11 9 7 16 17 19 21 22 22 23 22 23 24 25 25 25 24 23 22 22 22 22 23 23 22
4 4 1 5 2 5 3 6 5 6 3 2 1 5 4 1 4 8 9 10 8 6 7 14 15 17 17 18 20 22 23 23 24 25 25 25 24 23 23 22 22 22 22 22
4 1 1 3 2 2 2 2 2 6 3 3 3 3 3 3 3 5 8 8 8 6 5 7 11 15 17 17 17 20 21 21 23 24 25 25 26 27 26 23 21 21 22 23
3 2 1 0 1 3 3 1 3 3 1 4 4 3 4 5 4 3 4 7 7 4 3 4 6 8 11 15 18 20 21 21 22 24 25 27 27 27 25 24 23 23 23 25
3 3 1 1 2 5 1 1 2 2 3 4 1 5 3 5 6 7 4 4 5 5 1 3 6 8 8 11 16 19 22 22 24 25 26 27 27 26 25 25 25 25 24 24
1 4 3 2 1 1 1 2 3 4 4 1 3 6 2 5 6 6 4 1 2 3 3 5 8 11 13 14 14 16 18 21 23 24 26 27 27 28 28 28 28 27 25 24
4 1 2 5 3 1 1 1 3 3 2 5 4 5 1 2 4 4 5 5 6 7 7 6 7 8 12 15 16 17 18 20 22 23 24 25 27 29 29 28 28 26 24 24
2 2 6 7 4 4 2 3 3 4 3 3 6 4 5 7 8 5 4 4 2 3 4 6 7 8 11 14 16 18 20 21 22 22 23 25 26 27 28 28 29 28 27 27
3 3 1 3 2 2 4 5 6 7 5 6 5 7 7 10 9 9 5 5 2 2 3 3 4 7 10 14 16 17 19 20 21 22 23 26 27 29 29 30 29 29 28 28
3 1 3 5 4 3 4 9 6 3 1 6 2 11 5 2 4 6 8 6 2 0 3 6 7 8 9 15 19 21 23 24 25 23 25 27 28 30 30 31 31 31 31 32
3 4 3 5 5 5 5 8 6 3 3 6 5 7 3 4 7 9 6 4 4 4 8 9 11 13 15 15 19 23 24 24 27 27 26 29 31 32 32 32 31 31 29 26
4 4 3 3 4 2 7 3 4 6 4 3 3 3 4 3 3 2 3 5 7 8 8 13 16 17 17 18 19 21 24 28 30 28 27 27 28 28 28 27 26 25 24 22
2 4 2 3 2 7 2 2 3 5 5 3 4 2 2 3 1 6 8 8 9 12 15 18 18 17 19 18 17 19 23 27 27 27 26 27 27 26 26 26 24 22 18 14
5 4 4 2 4 6 4 1 3 4 4 6 5 2 2 1 3 4 15 16 16 19 20 22 20 16 19 19 18 19 23 25 26 25 25 24 24 24 22 20 18 15 16 17
3 1 5 3 3 7 3 3 2 4 5 5 10 8 6 1 3 14 17 18 18 20 20 22 24 22 19 22 20 21 22 24 22 22 22 23 22 20 18 15 17 17 18 18
7 7 4 3 4 8 2 2 5 2 7 8 7 7 7 10 15 18 21 23 22 23 22 21 25 26 22 22 22 24 24 22 23 23 23 23 21 18 17 16 18 18 18 18
1 6 5 8 5 4 11 16 9 8 6 4 5 7 11 14 17 21 24 27 25 24 25 21 23 26 24 23 25 28 27 26 26 25 24 21 18 17 17 20 20 19 19 19
3 3 2 4 3 5 10 7 6 5 4 2 7 10 12 16 19 22 22 23 24 25 23 21 22 25 27 27 26 29 30 29 27 24 20 18 17 18 20 21 20 20 20 19
4 3 4 0 2 8 3 5 4 4 5 7 7 9 12 15 16 17 18 19 20 21 20 18 19 25 28 27 26 29 30 29 26 20 17 18 19 20 21 21 20 20 19 19
7 5 4 5 8 4 5 3 5 7 8 9 10 9 9 10 12 13 13 14 17 18 18 17 16 17 19 21 22 26 26 26 23 20 20 20 21 21 21 20 20 19 18 19
Wind_Direction
174 101 203 216 197 174 131 200 232 297 134 207 236 268 265 243 226 236 230 225 219 220 218 209 205 207 207 210 213 216 215 209 206 200 198 195 191 187 186 184 182 178 174 167
42 225 214 188 171 195 197 187 258 66 157 176 305 276 270 222 231 229 227 221 214 212 206 204 204 206 207 209 212 217 216 212 208 207 205 204 197 191 194 190 188 185 183 177
162 184 151 177 165 161 90 179 190 192 359 317 328 298 313 322 285 272 230 223 217 207 201 197 200 205 207 211 214 217 214 213 210 205 203 200 201 200 196 196 195 191 189 186
195 329 175 169 161 129 220 187 156 118 83 220 48 271 297 342 11 31 74 202 205 198 202 199 199 203 210 216 219 218 216 214 212 208 208 212 211 206 206 203 199 197 193 193
240 163 143 161 126 348 198 104 101 87 90 45 300 86 270 354 36 16 20 118 184 196 202 201 205 209 212 217 219 219 219 219 216 213 216 217 218 220 215 206 206 203 200 197
90 49 46 82 83 57 135 71 42 53 77 29 245 137 284 345 305 307 14 90 157 186 194 204 208 210 213 213 217 219 220 221 218 217 219 220 220 217 215 214 211 209 206 203
47 16 17 41 96 25 75 69 352 354 6 220 220 70 246 335 320 280 98 89 95 169 200 202 202 206 211 213 216 220 222 222 217 219 222 222 222 223 225 223 219 215 213 210
160 299 60 348 47 176 158 144 156 206 205 255 17 233 257 128 58 87 84 83 88 109 172 198 205 210 217 221 224 224 224 224 222 221 223 222 222 226 230 229 225 222 221 218
146 227 2 49 15 76 188 182 156 102 52 60 233 299 320 140 68 62 64 71 72 82 135 177 203 213 217 222 228 231 231 231 229 229 227 224 224 227 227 224 223 223 220 219
180 109 0 59 108 43 131 203 75 2 161 260 282 263 223 179 154 118 68 68 65 85 119 192 214 226 227 227 227 227 232 237 236 233 230 229 230 227 225 224 224 224 221 218
120 93 253 66 182 181 58 326 36 121 140 186 243 260 213 167 170 153 142 87 65 60 99 212 226 233 236 239 237 237 236 234 232 233 233 232 228 225 222 224 232 229 222 221
85 139 183 214 249 128 240 190 147 131 262 91 154 269 2 148 159 155 165 217 255 243 238 248 248 238 235 237 239 240 237 232 233 236 233 231 228 225 225 228 227 223 221 216
199 13 34 336 5 96 176 184 129 102 77 211 142 262 91 126 161 205 241 265 279 269 251 245 250 252 248 242 243 243 239 238 238 237 237 233 230 229 228 225 221 218 218 217
129 147 172 196 196 128 147 186 190 128 130 201 221 263 265 226 221 249 247 266 287 357 314 261 255 249 238 236 240 238 235 236 239 241 238 234 230 224 219 215 213 214 215 212
97 185 261 294 271 181 195 184 188 193 202 188 260 206 237 224 210 246 223 225 252 285 308 300 296 269 263 249 246 251 246 247 245 244 241 237 231 222 216 213 211 212 208 204
30 228 77 312 356 128 220 232 209 224 254 293 51 279 210 60 200 240 217 215 224 290 347 342 325 283 258 251 252 246 248 248 244 246 240 231 224 220 218 216 214 208 207 209
98 117 72 263 338 333 338 227 187 186 207 165 211 245 168 187 206 215 208 264 313 319 325 329 324 311 298 262 249 249 248 254 241 237 241 234 230 225 222 222 216 214 215 217
127 98 106 242 6 345 245 183 169 187 236 245 290 230 210 145 135 344 347 348 333 311 320 320 311 303 299 280 255 250 244 239 233 230 232 229 228 226 221 217 216 214 207 196
146 116 97 138 207 300 296 171 153 137 277 214 219 268 127 120 349 103 44 355 325 308 303 303 300 295 290 281 266 249 247 241 236 236 236 232 225 217 211 208 203 198 190 188
72 79 120 96 156 234 231 70 136 127 298 4 122 101 59 30 53 262 332 323 315 310 307 306 303 289 281 282 268 247 244 241 239 237 230 220 211 206 200 194 194 199 208 215
152 13 183 202 229 285 249 214 155 101 239 64 63 52 33 26 286 308 312 314 315 312 308 307 303 305 278 273 267 248 242 238 233 221 212 206 203 201 199 203 216 219 221 221
166 155 193 168 201 270 33 90 176 170 91 65 48 26 352 322 315 316 313 310 308 305 300 294 291 292 291 270 260 246 240 230 220 212 209 207 206 207 214 224 229 225 225 227
293 187 182 180 209 85 81 113 102 99 111 60 356 336 318 316 318 316 314 315 313 309 301 298 289 282 281 277 256 246 238 225 217 215 216 214 216 221 227 233 232 230 230 231
249 176 174 98 167 142 133 106 75 69 68 340 320 319 315 314 316 314 315 317 317 314 306 297 289 284 281 281 264 246 237 224 220 219 220 224 228 233 235 234 232 232 233 233
206 125 171 97 359 136 130 63 43 11 345 326 321 320 316 313 315 315 320 321 323 324 318 308 297 291 286 280 260 239 231 226 221 218 223 228 231 234 235 235 234 236 236 238
192 193 166 223 147 128 111 336 353 353 355 340 332 333 329 326 328 329 329 327 329 332 331 326 314 298 288 276 248 228 222 219 219 219 224 230 235 236 238 238 239 238 238 238
Height
1494 1499 1504 1499 1499 1499 1498 1501 1503 1500 1503 1506 1506 1503 1496 1494 1494 1493 1493 1496 1498 1500 1504 1507 1511 1515 1519 1523 1526 1529 1532 1534 1536 1538 1541 1544 1546 1548 1550 1552 1554 1556 1557 1558
1498 1501 1494 1494 1495 1497 1498 1501 1504 1504 1503 1506 1504 1501 1488 1487 1484 1483 1486 1490 1494 1498 1501 1504 1508 1512 1516 1520 1524 1527 1530 1532 1534 1538 1541 1544 1546 1548 1550 1551 1553 1555 1557 1558
1499 1494 1492 1493 1496 1497 1502 1504 1503 1505 1504 1505 1507 1501 1488 1482 1481 1480 1481 1485 1490 1494 1498 1502 1505 1509 1514 1517 1521 1524 1527 1530 1533 1536 1539 1542 1544 1546 1547 1549 1552 1553 1556 1558
1495 1494 1493 1495 1495 1499 1500 1503 1502 1503 1516 1528 1512 1529 1494 1488 1485 1485 1484 1486 1488 1493 1498 1501 1504 1508 1512 1517 1520 1523 1526 1528 1532 1534 1537 1539 1540 1542 1545 1548 1550 1552 1554 1556
1496 1495 1495 1495 1497 1500 1502 1503 1504 1509 1526 1526 1517 1540 1498 1488 1489 1489 1489 1489 1491 1495 1498 1501 1504 1508 1512 1516 1519 1522 1525 1528 1530 1533 1535 1537 1540 1543 1545 1547 1548 1550 1552 1554
1497 1498 1498 1499 1501 1500 1502 1507 1514 1523 1531 1556 1532 1527 1506 1500 1501 1497 1494 1494 1494 1496 1499 1502 1505 1508 1511 1514 1517 1520 1523 1526 1529 1531 1534 1536 1538 1540 1542 1543 1546 1548 1550 1551
1499 1501 1501 1501 1501 1502 1506 1515 1540 1542 1551 1533 1519 1528 1506 1503 1502 1499 1497 1496 1497 1498 1500 1502 1505 1508 1510 1513 1515 1518 1520 1522 1525 1528 1531 1533 1536 1538 1540 1541 1543 1545 1547 1549
1505 1505 1503 1504 1504 1507 1506 1514 1536 1533 1525 1511 1514 1521 1504 1503 1503 1501 1499 1499 1498 1499 1500 1502 1504 1506 1509 1512 1514 1517 1519 1521 1523 1525 1527 1530 1532 1535 1537 1539 1541 1542 1545 1547
1505 1496 1505 1506 1506 1508 1508 1516 1512 1536 1541 1543 1511 1504 1504 1504 1504 1503 1502 1501 1501 1502 1502 1504 1505 1507 1508 1510 1512 1514 1517 1519 1521 1523 1525 1527 1529 1530 1533 1536 1538 1540 1542 1544
1497 1502 1506 1507 1507 1508 1511 1512 1518 1533 1532 1529 1509 1501 1504 1505 1505 1505 1505 1504 1504 1504 1504 1505 1506 1507 1508 1510 1511 1512 1514 1516 1518 1520 1522 1524 1526 1528 1531 1534 1535 1537 1539 1541
1499 1505 1508 1507 1509 1512 1515 1519 1517 1517 1522 1527 1533 1507 1504 1502 1504 1505 1505 1505 1505 1505 1505 1506 1506 1506 1507 1508 1509 1510 1511 1512 1514 1516 1518 1520 1521 1524 1527 1530 1533 1534 1536 1539
1499 1508 1513 1503 1514 1515 1514 1513 1514 1516 1523 1541 1541 1517 1501 1503 1503 1504 1505 1505 1506 1506 1505 1505 1505 1504 1504 1505 1506 1507 1508 1509 1511 1512 1514 1516 1518 1520 1522 1524 1528 1531 1533 1535
1498 1508 1520 1503 1515 1514 1517 1518 1517 1526 1530 1534 1537 1517 1503 1504 1505 1505 1505 1505 1505 1505 1504 1504 1503 1503 1503 1503 1504 1504 1505 1506 1508 1509 1511 1512 1514 1516 1518 1521 1524 1526 1530 1532
1495 1501 1504 1509 1499 1509 1517 1515 1522 1524 1543 1532 1523 1517 1508 1504 1504 1503 1503 1503 1504 1504 1503 1502 1502 1502 1501 1501 1502 1502 1503 1504 1505 1507 1508 1510 1511 1513 1515 1517 1520 1522 1525 1529
1499 1513 1503 1501 1501 1505 1513 1519 1521 1525 1522 1516 1506 1519 1511 1501 1500 1501 1502 1502 1502 1502 1502 1502 1501 1500 1500 1501 1501 1501 1502 1502 1503 1505 1505 1507 1508 1511 1513 1515 1516 1519 1522 1524
1502 1512 1520 1523 1505 1517 1519 1510 1514 1519 1525 1517 1524 1506 1498 1498 1499 1501 1501 1502 1501 1501 1500 1499 1499 1498 1497 1498 1498 1498 1498 1499 1499 1500 1502 1503 1504 1506 1508 1509 1511 1514 1517 1519
1509 1515 1530 1524 1510 1513 1518 1510 1512 1511 1515 1505 1509 1497 1497 1498 1499 1499 1499 1499 1499 1499 1499 1498 1497 1495 1493 1493 1493 1493 1494 1494 1495 1496 1497 1499 1500 1501 1503 1505 1507 1509 1512 1515
1510 1518 1527 1536 1524 1534 1498 1498 1499 1500 1503 1504 1500 1496 1495 1495 1496 1497 1498 1498 1498 1497 1497 1496 1494 1492 1490 1489 1488 1488 1489 1489 1490 1491 1493 1494 1496 1497 1499 1501 1503 1506 1508 1510
1501 1509 1529 1536 1538 1502 1484 1492 1498 1499 1498 1497 1498 1495 1495 1496 1496 1497 1497 1497 1497 1495 1494 1492 1490 1488 1485 1484 1483 1484 1484 1485 1486 1487 1488 1490 1492 1493 1495 1498 1500 1502 1504 1506
1503 1505 1519 1538 1534 1526 1493 1489 1489 1490 1508 1495 1494 1495 1495 1496 1506 1498 1495 1495 1494 1492 1490 1487 1485 1483 1481 1480 1479 1479 1480 1480 1481 1482 1484 1486 1489 1491 1493 1495 1498 1500 1502 1504
1505 1516 1515 1520 1535 1505 1489 1488 1488 1505 1507 1496 1496 1496 1496 1498 1497 1495 1492 1490 1488 1486 1484 1483 1481 1477 1477 1476 1475 1474 1475 1475 1477 1479 1481 1484 1487 1489 1491 1493 1495 1497 1500 1501
1507 1512 1514 1511 1513 1513 1486 1487 1491 1495 1494 1494 1494 1494 1494 1494 1492 1490 1488 1485 1483 1481 1478 1477 1474 1472 1471 1470 1470 1469 1470 1472 1474 1477 1479 1481 1483 1485 1487 1490 1492 1493 1496 1498
1500 1490 1497 1495 1491 1488 1486 1487 1490 1490 1491 1492 1492 1492 1491 1489 1486 1485 1482 1480 1477 1475 1472 1470 1468 1466 1465 1463 1464 1464 1465 1468 1470 1472 1475 1477 1479 1481 1484 1486 1488 1490 1492 1494
1481 1481 1488 1488 1488 1488 1488 1489 1489 1489 1489 1489 1489 1487 1486 1485 1482 1480 1477 1474 1471 1469 1466 1464 1462 1460 1458 1458 1457 1459 1461 1464 1466 1468 1471 1473 1475 1478 1481 1482 1484 1485 1487 1489
1481 1481 1481 1486 1487 1488 1488 1487 1487 1487 1487 1487 1486 1484 1483 1481 1480 1477 1474 1471 1468 1465 1461 1458 1455 1453 1452 1451 1452 1454 1456 1459 1461 1464 1466 1469 1472 1474 1476 1477 1479 1480 1482 1484
1475 1475 1481 1481 1478 1480 1485 1485 1485 1485 1485 1484 1483 1482 1481 1479 1477 1474 1471 1468 1465 1461 1457 1453 1450 1447 1446 1447 1449 1450 1452 1454 1457 1459 1462 1464 1467 1469 1470 1472 1474 1475 1476 1479